Location: Unspecified
(0.0000°N, 0.0000°E)
Time: 14:24:15
(UTC+00:00)

Vanguard 2 - Visible Passes

Search period start: 01 August 2021 00:00
Search period end: 11 August 2021 00:00
Orbit: 552 x 2937 km, 32.9° (Epoch: 31 July)

Date Brightness Start Highest point End Pass type
(mag) Time Alt. Az. Time Alt. Az. Time Alt. Az.
01 Aug 10.9 19:50:12 10° SSW 19:55:36 13° S 19:57:36 12° SSE visible
02 Aug 10.8 20:07:31 10° SSW 20:14:30 16° S 20:14:30 16° S visible
03 Aug 10.7 20:24:46 10° SSW 20:31:27 19° S 20:31:27 19° S visible
04 Aug 11.0 18:29:16 10° SSW 18:37:30 15° S 18:44:31 10° SE visible
04 Aug 10.7 20:42:03 10° SSW 20:48:28 22° S 20:48:28 22° S visible
05 Aug 10.8 18:47:19 10° SSW 18:56:55 18° S 19:04:07 11° SE visible
05 Aug 10.6 20:59:27 10° SW 21:05:32 25° SSW 21:05:32 25° SSW visible
06 Aug 10.6 19:05:00 10° SSW 19:16:06 22° SSE 19:21:14 17° SE visible
06 Aug 10.7 21:16:59 10° SW 21:22:41 26° SSW 21:22:41 26° SSW visible
07 Aug 10.3 19:22:31 10° SSW 19:35:03 28° SSE 19:38:28 25° SE visible
07 Aug 10.7 21:34:44 10° SW 21:39:55 26° SW 21:39:55 26° SW visible
08 Aug 10.0 19:40:02 10° SW 19:53:47 36° SSE 19:55:46 34° SE visible
08 Aug 10.9 21:52:43 10° SW 21:57:13 23° SW 21:57:13 23° SW visible
09 Aug 9.7 19:57:35 10° SW 20:12:17 47° SSE 20:13:10 46° SE visible
09 Aug 11.0 22:11:01 10° WSW 22:14:37 20° WSW 22:14:37 20° WSW visible
10 Aug 9.4 20:15:17 10° SW 20:30:34 61° SSE 20:30:39 61° SSE visible
10 Aug 11.2 22:29:43 10° WSW 22:32:07 16° WSW 22:32:07 16° WSW visible
